Location: Ferchesar
(52.6477°N, 12.4298°E)
Time: 04:00:12
(UTC+02:00)

Vanguard 3 - Pass Details

Date: 01 March 2021
Orbit: 508 x 3262 km, 33.3° (Epoch: 15 April)

Event Time Altitude Azimuth Distance (km) Brightness Sun altitude
Rises 18:29:47 0° 251° (WSW) 6,787 13.6 -6.9°
Reaches altitude 10° 18:35:36 10° 242° (WSW) 5,396 12.5 -7.8°
Maximum altitude 18:47:05 28° 192° (SSW) 3,150 10.3 -9.5°
Drops below altitude 10° 18:54:45 10° 138° (SE) 3,514 10.0 -10.7°
Enters shadow 18:56:33 - 130° (SE) 3,883 10.2 -11.0°
Sets 18:57:38 0° 126° (SE) 4,141 - -11.1°
